Dubuque, IA

12:26 PM CST on November 21, 2019 (GMT -0600)
Dubuque Regional

Weather History for KDBQ - September, 2019

Change the Weather History Date:

Friday, September 27, 2019

  Actual Average Record
Temperature  
Mean Temperature 62 °F 57 °F  
Max Temperature 66 °F 68 °F 88 °F (1954)
Min Temperature 57 °F 47 °F 31 °F (1889)
Degree Days  
Heating Degree Days 4 9  
Month to date heating degree days 37 124  
Since 1 July heating degree days 46 151  
Cooling Degree Days 0 1  
Month to date cooling degree days 86 59  
Year to date cooling degree days 659 635  
Growing Degree Days 12 (Base 50)    
Moisture  
Dew Point 60 °F    
Average Humidity 94    
Maximum Humidity 100    
Minimum Humidity 56    
Precipitation  
Precipitation 0.20 in 0.11 in 2.04 in (1907)
Month to date precipitation 12.34 3.17  
Year to date precipitation 43.47 29.15  
Snow  
Snow 0.00 in 0.00 in - ()
Month to date snowfall 0.0 0.0  
Since 1 July snowfall 0.0 0.0  
Since 1 September snowfall 0.0 0.0  
Snow Depth 0.00 in    
Sea Level Pressure  
Sea Level Pressure 29.71 in    
Wind  
Wind Speed 11 mph ()    
Max Wind Speed 20 mph    
Max Gust Speed 28 mph    
Visibility 5.5 miles    
Events Rain , Thunderstorm    
T = Trace of Precipitation, MM = Missing Value Source: Averaged Metar Reports

Daily Weather History Graph

Daily Weather History Graph

Search for Another Location

Airport or City:

Astronomy

Sep. 27, 2019 Rise Set
Actual Time 6:55 AM CDT 6:51 PM CDT
Civil Twilight 6:27 AM CDT 7:19 PM CDT
Nautical Twilight 5:54 AM CDT 7:52 PM CDT
Astronomical Twilight 5:21 AM CDT 8:25 PM CDT
Moon 5:13 AM CDT (9/27) 6:44 PM CDT (9/27)
Length of Visible Light 12h 52m
Length of Day
11h 56m
Waning Crescent, 2% of the Moon is Illuminated
Sep 27
Waning Crescent
Sep 28
New
Oct 5
First Quarter
Oct 13
Full
Oct 21
Last Quarter

Hourly Weather History & Observations

Time (CDT) Temp. Dew Point Humidity Pressure Visibility Wind Dir Wind Speed Gust Speed Precip Events Conditions
12:53 AM 61.0 °F 48.0 °F 62% 29.79 in 10.0 mi South 15.0 mph - N/A   Overcast
1:53 AM 62.1 °F 46.9 °F 58% 29.77 in 10.0 mi South 16.1 mph - N/A   Overcast
2:53 AM 62.1 °F 48.0 °F 60% 29.75 in 10.0 mi South 13.8 mph - N/A   Overcast
3:53 AM 61.0 °F 48.9 °F 64% 29.74 in 10.0 mi South 10.4 mph - N/A   Overcast
4:53 AM 60.1 °F 51.1 °F 72% 29.71 in 10.0 mi South 13.8 mph - 0.01 in   Overcast
5:53 AM 61.0 °F 51.1 °F 70% 29.71 in 10.0 mi South 12.7 mph - N/A   Overcast
6:53 AM 61.0 °F 51.1 °F 70% 29.69 in 10.0 mi South 12.7 mph - N/A   Overcast
7:53 AM 62.1 °F 52.0 °F 70% 29.68 in 10.0 mi South 11.5 mph 20.7 mph N/A   Mostly Cloudy
8:30 AM 60.1 °F 55.0 °F 83% 29.69 in 10.0 mi SSW 11.5 mph - 0.02 in Rain , Thunderstorm Light Rain
8:50 AM 59.0 °F 55.4 °F 88% 29.66 in 10.0 mi South 13.8 mph - 0.03 in Thunderstorm Thunderstorm
8:53 AM 59.0 °F 55.9 °F 90% 29.65 in 6.0 mi South 11.5 mph 25.3 mph 0.03 in Rain , Thunderstorm Thunderstorms and Rain
9:05 AM 57.9 °F 57.0 °F 97% 29.67 in 10.0 mi SSW 13.8 mph - 0.02 in Thunderstorm Overcast
9:13 AM 59.0 °F 57.0 °F 93% 29.68 in 10.0 mi SSW 15.0 mph 26.5 mph 0.02 in Thunderstorm Overcast
9:20 AM 59.0 °F 57.0 °F 93% 29.68 in 10.0 mi SSW 18.4 mph 26.5 mph 0.02 in   Overcast
9:32 AM 59.0 °F 57.0 °F 93% 29.69 in 10.0 mi SSW 13.8 mph 23.0 mph 0.02 in   Overcast
9:49 AM 59.0 °F 57.2 °F 94% 29.68 in 9.0 mi South 18.4 mph - 0.02 in   Overcast
9:53 AM 59.0 °F 57.9 °F 96% 29.68 in 6.0 mi South 16.1 mph - 0.02 in Rain Light Rain
10:10 AM 59.0 °F 59.0 °F 100% 29.69 in 4.0 mi South 12.7 mph - 0.00 in   Overcast
10:40 AM 60.1 °F 59.0 °F 96% 29.69 in 2.5 mi South 10.4 mph - 0.01 in   Overcast
10:53 AM 60.1 °F 60.1 °F 100% 29.69 in 2.5 mi South 11.5 mph - 0.01 in   Overcast
11:14 AM 60.1 °F 60.1 °F 100% 29.69 in 1.2 mi South 11.5 mph - 0.00 in Rain Light Rain
11:42 AM 61.0 °F 61.0 °F 100% 29.68 in 3.0 mi SSW 12.7 mph - 0.02 in   Overcast
11:53 AM 61.0 °F 61.0 °F 100% 29.68 in 3.0 mi South 9.2 mph - 0.02 in   Overcast
12:25 PM 62.1 °F 62.1 °F 100% 29.68 in 1.8 mi South 11.5 mph - 0.01 in   Overcast
12:42 PM 62.1 °F 62.1 °F 100% 29.67 in 2.5 mi South 13.8 mph - 0.01 in   Overcast
12:51 PM 62.6 °F 62.6 °F 100% 29.67 in 3.0 mi South 11.5 mph - 0.01 in   Overcast
12:53 PM 63.0 °F 62.1 °F 97% 29.67 in 2.0 mi South 11.5 mph - 0.01 in   Overcast
1:00 PM 63.0 °F 62.1 °F 97% 29.68 in 3.0 mi South 12.7 mph - N/A   Overcast
1:09 PM 63.0 °F 63.0 °F 100% 29.67 in 2.5 mi South 12.7 mph - N/A   Overcast
1:53 PM 64.0 °F 64.0 °F 100% 29.65 in 2.5 mi SSW 10.4 mph - N/A   Overcast
2:13 PM 64.0 °F 64.0 °F 100% 29.66 in 1.5 mi SW 8.1 mph - N/A   Overcast
2:32 PM 64.0 °F 64.0 °F 100% 29.67 in 2.0 mi SSW 9.2 mph - N/A   Overcast
2:53 PM 64.9 °F 64.9 °F 100% 29.66 in 2.0 mi South 6.9 mph - N/A   Overcast
3:00 PM 64.9 °F 64.9 °F 100% 29.67 in 1.5 mi South 8.1 mph - N/A   Overcast
3:40 PM 64.9 °F 64.9 °F 100% 29.68 in 2.0 mi SSW 6.9 mph - N/A   Overcast
3:53 PM 64.9 °F 64.9 °F 100% 29.65 in 2.5 mi South 5.8 mph - N/A   Overcast
4:10 PM 66.0 °F 64.9 °F 96% 29.68 in 3.0 mi SSW 6.9 mph - N/A   Overcast
4:23 PM 64.9 °F 64.9 °F 100% 29.69 in 2.5 mi SSW 6.9 mph - N/A   Overcast
4:39 PM 64.9 °F 64.9 °F 100% 29.69 in 1.5 mi SSW 5.8 mph - N/A   Overcast
4:53 PM 64.9 °F 64.9 °F 100% 29.69 in 1.0 mi SSW 4.6 mph - N/A   Overcast
5:53 PM 64.9 °F 64.9 °F 100% 29.71 in 1.5 mi WNW 3.5 mph - N/A   Overcast
6:20 PM 64.9 °F 64.9 °F 100% 29.74 in 3.0 mi NW 10.4 mph - 0.01 in Rain Light Rain
6:34 PM 64.9 °F 64.9 °F 100% 29.72 in 4.0 mi Calm Calm - 0.01 in   Overcast
6:38 PM 64.9 °F 64.9 °F 100% 29.71 in 4.0 mi ENE 4.6 mph - 0.01 in Thunderstorm Overcast
6:53 PM 64.9 °F 64.9 °F 100% 29.70 in 2.0 mi NW 3.5 mph - 0.03 in Rain Rain
7:02 PM 64.0 °F 64.0 °F 100% 29.71 in 1.8 mi NNW 4.6 mph - 0.05 in Rain Rain
7:09 PM 64.4 °F 64.4 °F 100% 29.72 in 2.5 mi NW 6.9 mph - N/A Rain Light Rain
7:11 PM 64.9 °F 64.9 °F 100% 29.72 in 3.0 mi NNW 8.1 mph - 0.06 in Rain Light Rain
7:53 PM 64.0 °F 64.0 °F 100% 29.74 in 9.0 mi North 11.5 mph - 0.07 in   Overcast
8:20 PM 64.0 °F 63.0 °F 96% 29.75 in 9.0 mi North 11.5 mph - N/A   Overcast
8:53 PM 63.0 °F 63.0 °F 100% 29.76 in 10.0 mi North 11.5 mph - N/A   Overcast
9:24 PM 63.0 °F 63.0 °F 100% 29.76 in 9.0 mi NNE 11.5 mph - N/A   Overcast
9:49 PM 62.6 °F 62.6 °F 100% 29.76 in 10.0 mi NNE 11.5 mph - N/A   Mostly Cloudy
9:53 PM 62.1 °F 62.1 °F 100% 29.76 in 10.0 mi NNE 10.4 mph - N/A   Mostly Cloudy
10:53 PM 61.0 °F 61.0 °F 100% 29.81 in 10.0 mi NNE 6.9 mph - N/A   Mostly Cloudy
11:30 PM 61.0 °F 61.0 °F 100% 29.83 in 5.0 mi NNE 5.8 mph - N/A   Scattered Clouds
11:36 PM 61.0 °F 61.0 °F 100% 29.84 in 5.0 mi NNE 5.8 mph - N/A   Mostly Cloudy
11:53 PM 61.0 °F 61.0 °F 100% 29.85 in 7.0 mi North 6.9 mph - N/A   Mostly Cloudy